Le nostre stazioni meteo in Italia

Pubblicità
Il mio iltempo24.it
Cagliari/Elmas, Italia (16560): Temperatura & dewpoint: 09.11.2018 08:00:00 - 15.11.2018 08:00:00 (CET)Cagliari/Elmas, Italia (16560): velocità del vento: 09.11.2018 08:00:00 - 15.11.2018 08:00:00 (CET)Cagliari/Elmas, Italia (16560): direzione del vento: 09.11.2018 08:00:00 - 15.11.2018 08:00:00 (CET)Cagliari/Elmas, Italia (16560): reduced air pressure: 09.11.2018 08:00:00 - 15.11.2018 08:00:00 (CET)Cagliari/Elmas, Italia (16560): visibility: 09.11.2018 08:00:00 - 15.11.2018 08:00:00 (CET)Cagliari/Elmas, Italia (16560): precipitazioni: 09.11.2018 08:00:00 - 15.11.2018 08:00:00 (CET)
Data & Tempo tt [°C] td [°C] ff [km/h] ff [kn] dd ppp [hPa] vv [km] rr [mm]
15.11.2018 08:00:00 13,0 11,0 9 5 ENE - 10 -
15.11.2018 07:00:00 12,3 10,6 9 5 ENE 1021,8 30 -
15.11.2018 06:00:00 13,0 11,0 9 5 ENE - 10 -
15.11.2018 05:00:00 12,0 11,0 9 5 ENE - 10 -
15.11.2018 04:00:00 12,5 11,1 8 4 ENE 1022,5 10 0,0
15.11.2018 03:00:00 13,0 11,0 5 3 ENE - 10 -
15.11.2018 02:00:00 13,0 11,0 8 4 E - 10 -
15.11.2018 01:00:00 13,3 11,5 5 3 ENE 1023,6 10 -
15.11.2018 00:00:00 15,0 13,0 8 4 SE - 10 -
14.11.2018 23:00:00 15,0 13,0 5 3 SE - 10 -
14.11.2018 22:00:00 16,2 12,7 9 5 SE 1023,8 10 0,0
14.11.2018 21:00:00 16,0 13,0 9 5 ESE - 10 -
14.11.2018 20:00:00 17,0 12,0 11 6 ESE - 10 -
14.11.2018 19:00:00 17,7 14,0 13 7 SE 1024,5 10 -
14.11.2018 18:00:00 18,0 14,0 15 8 SSE - 10 -
14.11.2018 17:00:00 18,0 14,0 21 11 SE - 10 -
14.11.2018 16:00:00 18,9 14,9 21 11 SE 1024,5 10 0,0
14.11.2018 15:00:00 20,0 15,0 22 12 SSE - 10 -
14.11.2018 14:00:00 20,0 14,0 18 10 SSE - 10 -
14.11.2018 13:00:00 20,3 14,5 21 11 SE 1025,3 10 -
14.11.2018 12:00:00 20,0 16,0 21 11 SE - 10 -
14.11.2018 11:00:00 20,0 15,0 13 7 S - 10 -
14.11.2018 10:00:00 19,1 15,0 5 3 SE 1027,0 10 0,0
14.11.2018 09:00:00 16,0 13,0 2 1 - - 10 -
14.11.2018 08:00:00 13,0 12,0 5 3 NNO - 10 -
14.11.2018 07:00:00 12,8 11,6 4 2 NNE 1026,1 10 -
14.11.2018 06:00:00 13,0 12,0 5 3 N - 10 -
14.11.2018 05:00:00 14,0 13,0 8 4 N - 10 -
14.11.2018 04:00:00 14,1 13,0 8 4 E 1026,2 10 0,0
14.11.2018 03:00:00 16,0 15,0 8 4 E - 10 -
14.11.2018 02:00:00 17,0 16,0 8 4 SSE - 10 -
14.11.2018 01:00:00 17,4 16,2 11 6 SE 1027,0 10 -
14.11.2018 00:00:00 18,0 17,0 13 7 SE - 10 -
13.11.2018 23:00:00 18,0 17,0 13 7 SSE - 10 -
13.11.2018 22:00:00 18,3 17,1 15 8 SE 1027,4 10 0,0
13.11.2018 21:00:00 19,0 17,0 16 9 SE - 10 -
13.11.2018 20:00:00 19,0 17,0 16 9 SE - 10 -
13.11.2018 19:00:00 18,6 17,3 16 9 ESE 1027,2 30 -
13.11.2018 18:00:00 19,0 17,0 21 11 SE - 10 -
13.11.2018 17:00:00 19,0 17,0 18 10 SE - 10 -
13.11.2018 16:00:00 19,6 17,4 22 12 SE 1026,5 10 0,0
13.11.2018 15:00:00 20,0 17,0 24 13 SE - 10 -
13.11.2018 14:00:00 21,0 18,0 22 12 SE - 10 -
13.11.2018 13:00:00 20,3 17,2 22 12 SE 1026,9 10 -
13.11.2018 12:00:00 21,0 18,0 24 13 SE - 10 -
13.11.2018 11:00:00 21,0 17,0 24 13 SE - 10 -
13.11.2018 10:00:00 20,2 17,3 24 13 ESE 1027,1 10 0,0
13.11.2018 09:00:00 20,0 17,0 21 11 SE - 10 -
13.11.2018 08:00:00 19,0 17,0 16 9 SE - 10 -
13.11.2018 07:00:00 18,6 16,8 18 10 SE 1026,0 10 -
13.11.2018 06:00:00 19,0 17,0 18 10 SE - 9 -
13.11.2018 05:00:00 19,0 17,0 22 12 ESE - 10 -
13.11.2018 04:00:00 18,9 16,6 22 12 ESE 1025,3 10 0,0
13.11.2018 03:00:00 19,0 17,0 18 10 ESE - 10 -
13.11.2018 02:00:00 19,0 17,0 18 10 ESE - 10 -
13.11.2018 01:00:00 18,4 16,6 21 11 SE 1025,4 10 -
13.11.2018 00:00:00 19,0 17,0 18 10 SE - 10 -
12.11.2018 23:00:00 18,0 16,0 24 13 ESE - 10 -
12.11.2018 22:00:00 18,3 15,9 22 12 SE 1025,3 10 0,0
12.11.2018 21:00:00 18,0 16,0 18 10 SE - 10 -
12.11.2018 20:00:00 19,0 15,0 24 13 ESE - 10 -
12.11.2018 19:00:00 18,6 15,2 22 12 SE 1024,5 10 -
12.11.2018 18:00:00 19,0 15,0 26 14 ESE - 10 -
12.11.2018 17:00:00 19,0 15,0 22 12 SE - 10 -
12.11.2018 16:00:00 19,8 14,2 21 11 SE 1023,7 10 0,0
12.11.2018 15:00:00 21,0 14,0 18 10 SE - 10 -
12.11.2018 14:00:00 21,0 14,0 21 11 SE - 10 -
12.11.2018 13:00:00 21,0 13,9 22 12 SE 1023,8 10 -
12.11.2018 12:00:00 20,0 14,0 22 12 SE - 10 -
12.11.2018 11:00:00 20,0 15,0 22 12 SE - 10 -
12.11.2018 10:00:00 18,7 13,4 2 1 - 1024,8 10 0,0
12.11.2018 09:00:00 15,0 12,0 4 2 - - 10 -
12.11.2018 08:00:00 13,0 11,0 4 2 NNE - 10 -
12.11.2018 07:00:00 11,4 10,1 4 2 NE 1023,8 20 -
12.11.2018 06:00:00 12,0 10,0 9 5 NE - 10 -
12.11.2018 05:00:00 12,0 11,0 4 2 - - 10 -
12.11.2018 04:00:00 16,2 14,7 5 3 S 1023,2 10 0,0
12.11.2018 03:00:00 14,0 13,0 5 3 SE - 10 -
12.11.2018 02:00:00 13,0 12,0 8 4 E - 10 -
12.11.2018 01:00:00 13,6 12,5 9 5 E 1023,0 10 -
12.11.2018 00:00:00 14,0 13,0 4 2 - - 10 -
11.11.2018 23:00:00 15,0 15,0 9 5 ESE - 10 -
11.11.2018 22:00:00 15,5 14,5 8 4 ESE 1022,7 10 0,0
11.11.2018 21:00:00 15,0 14,0 8 4 ESE - 10 -
11.11.2018 20:00:00 16,0 14,0 9 5 SE - 10 -
11.11.2018 19:00:00 16,0 13,7 9 5 SE 1022,4 10 -
11.11.2018 18:00:00 16,0 14,0 11 6 SE - 10 -
11.11.2018 17:00:00 18,0 14,0 11 6 SSE - 10 -
11.11.2018 16:00:00 18,5 13,3 13 7 SSE 1021,1 10 0,0
11.11.2018 15:00:00 20,0 12,0 9 5 SSE - 10 -
11.11.2018 14:00:00 20,0 13,0 8 4 SSO - 10 -
11.11.2018 13:00:00 19,7 12,8 4 2 - 1020,8 10 -
11.11.2018 12:00:00 18,0 13,0 5 3 SO - 10 -
11.11.2018 11:00:00 17,0 13,0 4 2 - - 10 -
11.11.2018 10:00:00 15,0 12,8 5 3 ONO 1020,8 10 0,0
11.11.2018 09:00:00 13,0 12,0 4 2 NNO - 10 -
11.11.2018 08:00:00 11,0 10,0 4 2 - - 10 -
11.11.2018 07:00:00 10,2 9,6 9 5 NNO 1019,1 10 -
11.11.2018 06:00:00 11,0 10,0 8 4 N - 10 -
11.11.2018 05:00:00 11,0 11,0 8 4 NNO - 10 -
11.11.2018 04:00:00 10,8 10,3 13 7 NNO 1018,4 10 0,0
11.11.2018 03:00:00 12,0 12,0 15 8 NO - 10 -
11.11.2018 02:00:00 12,0 11,0 9 5 NO - 10 -
11.11.2018 01:00:00 12,0 11,1 9 5 NNO 1017,8 10 -
11.11.2018 00:00:00 13,0 12,0 5 3 NNO - 10 -
10.11.2018 23:00:00 13,0 12,0 9 5 NO - 10 -
10.11.2018 22:00:00 13,4 12,2 11 6 NNO 1017,3 10 0,0
10.11.2018 21:00:00 - - - - - - - -
10.11.2018 20:00:00 - - - - - - - -
10.11.2018 19:00:00 15,6 12,6 11 6 NO 1016,0 - -
10.11.2018 18:00:00 - - - - - - - -
10.11.2018 17:00:00 - - - - - - - -
10.11.2018 16:00:00 17,7 12,4 11 6 NNO 1014,6 - 0,0
10.11.2018 15:00:00 - - - - - - - -
10.11.2018 14:00:00 18,0 12,0 16 9 NNO - 10 -
10.11.2018 13:00:00 17,8 11,6 13 7 NO 1014,9 10 -
10.11.2018 12:00:00 16,0 12,0 13 7 NNO - 10 -
10.11.2018 11:00:00 16,0 12,0 15 8 NNO - 10 -
10.11.2018 10:00:00 14,6 12,1 9 5 N 1016,0 10 0,0
10.11.2018 09:00:00 14,0 11,0 11 6 NNO - 10 -
10.11.2018 08:00:00 14,0 11,0 11 6 NO - 10 -
10.11.2018 07:00:00 13,5 11,0 11 6 NO 1015,1 10 -
10.11.2018 06:00:00 14,0 11,0 8 4 NO - 10 -
10.11.2018 05:00:00 13,0 11,0 5 3 N - 10 -
10.11.2018 04:00:00 13,1 11,3 8 4 NNE 1015,6 10 0,0
10.11.2018 03:00:00 14,0 12,0 9 5 NO - 10 -
10.11.2018 02:00:00 14,0 11,0 16 9 ONO - 10 -
10.11.2018 01:00:00 14,4 11,3 13 7 ONO 1017,1 10 -
10.11.2018 00:00:00 16,0 11,0 9 5 ONO - 10 -
09.11.2018 23:00:00 16,0 12,0 15 8 N - 10 -
09.11.2018 22:00:00 16,3 10,7 16 9 NO 1016,6 10 0,0
09.11.2018 21:00:00 17,0 13,0 16 9 NO - 10 -
09.11.2018 20:00:00 17,0 13,0 21 11 O - 10 -
09.11.2018 19:00:00 17,3 15,4 4 2 - 1015,4 10 -
09.11.2018 18:00:00 18,0 16,0 5 3 OSO - 10 -
09.11.2018 17:00:00 19,0 15,0 8 4 SSE - 10 -
09.11.2018 16:00:00 19,3 14,9 11 6 SSE 1015,0 10 0,0
09.11.2018 15:00:00 20,0 15,0 15 8 SE - 10 -
09.11.2018 14:00:00 - - - - - - - -
09.11.2018 13:00:00 19,9 15,7 24 13 SE 1015,9 - -
09.11.2018 12:00:00 - - - - - - - -
09.11.2018 11:00:00 20,0 14,0 21 11 SE - 10 -
09.11.2018 10:00:00 18,9 14,1 21 11 SE 1017,2 10 0,0
09.11.2018 09:00:00 18,0 14,0 11 6 SE - 10 -
09.11.2018 08:00:00 15,0 12,0 5 3 ESE - 10 -

tt = Temperatura
td = dewpoint
ff = velocità del vento
dd = direzione del vento
ppp = reduced air pressure
vv = visibility
rr = precipitazioni

Stazioni seguenti

WeatherPro
AMSI
MeteoEarth